| time (UTC) | temp C | wind direction | speed KPH | gust KPH | rain 1hr cm | rain 24hr cm | rain mn cm | humidity % | barometer mb |
| 20260506103025 | 23 | 160 | 0.0 | 4.8 | 0.00 | 0.00 | 0.00 | 100 | 1009.0 |
| 20260506101523 | 23 | 159 | 0.0 | 3.2 | 0.00 | 0.00 | 0.00 | 100 | 1009.0 |
| 20260506100020 | 23 | 162 | 0.0 | 8.0 | 0.00 | 0.00 | 0.00 | 100 | 1008.8 |
| 20260506094520 | 23 | 157 | 0.0 | 4.8 | 0.00 | 0.00 | 0.00 | 100 | 1008.6 |
| 20260506093018 | 23 | 166 | 3.2 | 4.8 | 0.00 | 0.00 | 0.00 | 100 | 1008.6 |
| 20260506091518 | 23 | 167 | 0.0 | 4.8 | 0.00 | 0.00 | 0.00 | 99 | 1008.8 |
| 20260506090021 | 23 | 166 | 1.6 | 6.4 | 0.00 | 0.00 | 0.00 | 99 | 1008.8 |
| 20260506084531 | 23 | 173 | 1.6 | 6.4 | 0.00 | 0.00 | 0.00 | 99 | 1008.7 |
| 20260506083013 | 23 | 172 | 1.6 | 9.7 | 0.00 | 0.00 | 0.00 | 99 | 1008.6 |
| 20260506081516 | 23 | 161 | 0.0 | 3.2 | 0.00 | 0.00 | 0.00 | 99 | 1008.7 |
| 20260506073011 | 23 | 159 | 3.2 | 9.7 | 0.00 | 0.00 | 0.00 | 99 | 1008.8 |
| 20260506071509 | 23 | 134 | 1.6 | 8.0 | 0.00 | 0.00 | 0.00 | 99 | 1009.1 |
| 20260506061505 | 23 | 192 | 0.0 | 6.4 | 0.00 | 0.00 | 0.00 | 98 | 1009.4 |
| 20260506050158 | 24 | 121 | 3.2 | 8.0 | 0.00 | 0.00 | 0.00 | 96 | 1009.3 |
| 20260506044558 | 25 | 166 | 3.2 | 6.4 | 0.00 | 0.00 | 0.00 | 95 | 1009.3 |
| 20260506043101 | 25 | 138 | 4.8 | 14.5 | 0.00 | 0.00 | 0.00 | 95 | 1008.9 |
| 20260506041557 | 25 | 171 | 4.8 | 17.7 | 0.00 | 0.00 | 0.00 | 95 | 1008.8 |
| 20260506040054 | 25 | 134 | 4.8 | 17.7 | 0.00 | 0.00 | 0.00 | 94 | 1008.7 |
| 20260506034558 | 25 | 138 | 8.0 | 24.1 | 0.00 | 0.00 | 0.00 | 94 | 1008.5 |
| 20260506033109 | 25 | 136 | 8.0 | 19.3 | 0.00 | 0.00 | 0.00 | 94 | 1008.4 |
| 20260506031554 | 25 | 168 | 3.2 | 12.9 | 0.00 | 0.00 | 0.00 | 94 | 1008.3 |
| 20260506030100 | 25 | 144 | 1.6 | 11.3 | 0.00 | 0.00 | 0.00 | 93 | 1007.9 |
| 20260506024607 | 26 | 139 | 4.8 | 12.9 | 0.00 | 0.00 | 0.00 | 93 | 1007.8 |
| 20260506023057 | 26 | 115 | 3.2 | 9.7 | 0.00 | 0.00 | 0.00 | 92 | 1007.8 |
| 20260506021557 | 26 | 103 | 3.2 | 8.0 | 0.00 | 0.00 | 0.00 | 91 | 1007.6 |
| 20260506020050 | 26 | 113 | 1.6 | 9.7 | 0.00 | 0.00 | 0.00 | 91 | 1007.5 |
| 20260506014550 | 26 | 151 | 1.6 | 8.0 | 0.00 | 0.00 | 0.00 | 91 | 1007.4 |
| 20260506013052 | 27 | 136 | 3.2 | 9.7 | 0.00 | 0.00 | 0.00 | 90 | 1007.1 |
| 20260506011610 | 27 | 144 | 3.2 | 8.0 | 0.00 | 0.00 | 0.00 | 89 | 1007.0 |
| 20260506010048 | 27 | 162 | 3.2 | 11.3 | 0.00 | 0.00 | 0.00 | 88 | 1006.8 |
| 20260506004547 | 27 | 123 | 4.8 | 12.9 | 0.00 | 0.00 | 0.00 | 87 | 1006.6 |
| 20260506003047 | 28 | 167 | 3.2 | 11.3 | 0.00 | 0.00 | 0.00 | 86 | 1006.5 |
| 20260506001546 | 28 | 136 | 4.8 | 14.5 | 0.00 | 0.00 | 0.00 | 85 | 1006.4 |
| 20260506000053 | 29 | 121 | 4.8 | 12.9 | 0.00 | 0.00 | 0.00 | 84 | 1006.1 |
| 20260505234545 | 29 | 124 | 3.2 | 11.3 | 0.00 | 0.00 | 0.00 | 83 | 1006.1 |
| 20260505233045 | 29 | 128 | 4.8 | 12.9 | 0.00 | 0.00 | 0.00 | 83 | 1006.1 |
| 20260505230042 | 30 | 136 | 3.2 | 12.9 | 0.00 | 0.00 | 0.00 | 82 | 1006.0 |
| 20260505224541 | 30 | 164 | 6.4 | 17.7 | 0.00 | 0.00 | 0.00 | 81 | 1006.1 |
| 20260505223016 | 30 | 167 | 3.2 | 12.9 | 0.00 | 0.00 | 0.00 | 81 | 1006.2 |
| 20260505221536 | 30 | 206 | 4.8 | 19.3 | 0.00 | 0.00 | 0.00 | 81 | 1006.3 |
| 20260505220051 | 30 | 171 | 3.2 | 11.3 | 0.00 | 0.00 | 0.00 | 81 | 1006.4 |
| 20260505214632 | 30 | 202 | 3.2 | 12.9 | 0.00 | 0.00 | 0.00 | 82 | 1006.6 |
| 20260505213032 | 30 | 179 | 8.0 | 16.1 | 0.00 | 0.00 | 0.00 | 82 | 1006.8 |
| 20260505211534 | 29 | 150 | 4.8 | 16.1 | 0.00 | 0.00 | 0.00 | 83 | 1007.0 |
| 20260505210025 | 29 | 169 | 3.2 | 19.3 | 0.00 | 0.00 | 0.00 | 83 | 1007.1 |
| 20260505204525 | 29 | 134 | 4.8 | 16.1 | 0.00 | 0.00 | 0.00 | 83 | 1007.5 |
| 20260505201520 | 28 | 217 | 6.4 | 19.3 | 0.00 | 0.00 | 0.00 | 83 | 1007.8 |
| 20260505200018 | 28 | 182 | 6.4 | 19.3 | 0.00 | 0.00 | 0.00 | 84 | 1008.0 |
| 20260505194521 | 28 | 148 | 4.8 | 16.1 | 0.00 | 0.00 | 0.00 | 85 | 1008.3 |
| 20260505193021 | 28 | 175 | 3.2 | 9.7 | 0.00 | 0.00 | 0.00 | 83 | 1008.4 |
| 20260505191514 | 28 | 215 | 6.4 | 16.1 | 0.00 | 0.00 | 0.00 | 84 | 1008.7 |
| 20260505190010 | 27 | 169 | 8.0 | 16.1 | 0.00 | 0.00 | 0.00 | 86 | 1008.9 |
| 20260505184505 | 27 | 138 | 6.4 | 16.1 | 0.00 | 0.00 | 0.00 | 87 | 1009.2 |
| 20260505183003 | 26 | 205 | 6.4 | 17.7 | 0.00 | 0.00 | 0.00 | 88 | 1009.4 |
| 20260505181503 | 26 | 214 | 6.4 | 14.5 | 0.00 | 0.00 | 0.00 | 88 | 1009.3 |
| 20260505180100 | 26 | 166 | 4.8 | 14.5 | 0.00 | 0.00 | 0.00 | 90 | 1009.3 |
| 20260505174557 | 26 | 201 | 4.8 | 16.1 | 0.00 | 0.00 | 0.00 | 90 | 1009.7 |
| 20260505173055 | 25 | 146 | 3.2 | 14.5 | 0.00 | 0.00 | 0.00 | 91 | 1009.8 |
| 20260505171552 | 25 | 202 | 6.4 | 16.1 | 0.00 | 0.00 | 0.00 | 91 | 1009.8 |
| 20260505170050 | 25 | 213 | 9.7 | 17.7 | 0.00 | 0.00 | 0.00 | 92 | 1009.9 |
| 20260505164557 | 24 | 232 | 11.3 | 17.7 | 0.00 | 0.00 | 0.00 | 94 | 1009.9 |
| 20260505163046 | 24 | 215 | 8.0 | 16.1 | 0.00 | 0.00 | 0.00 | 94 | 1009.9 |
| 20260505153040 | 23 | 206 | 8.0 | 14.5 | 0.00 | 0.00 | 0.00 | 97 | 1010.0 |
| 20260505151535 | 22 | 202 | 6.4 | 17.7 | 0.00 | 0.00 | 0.00 | 98 | 1010.0 |
| 20260505124535 | 22 | 184 | 4.8 | 17.7 | 0.00 | 0.00 | 0.00 | 97 | 1009.1 |
| 20260505123025 | 22 | 194 | 3.2 | 16.1 | 0.00 | 0.00 | 0.00 | 97 | 1008.9 |
| 20260505121523 | 22 | 174 | 6.4 | 16.1 | 0.00 | 0.00 | 0.00 | 97 | 1008.9 |
| 20260505120030 | 22 | 188 | 6.4 | 20.9 | 0.00 | 0.00 | 0.00 | 97 | 1008.9 |
| 20260505114522 | 21 | 188 | 6.4 | 24.1 | 0.00 | 0.00 | 0.00 | 98 | 1008.8 |
| 20260505113021 | 21 | 190 | 6.4 | 16.1 | 0.00 | 0.00 | 0.00 | 98 | 1008.6 |
| 20260505111520 | 21 | 208 | 6.4 | 16.1 | 0.00 | 0.00 | 0.00 | 97 | 1008.7 |